Weather History for Spirit of St Louis, MO

Change the Weather History Date:

Thursday, April 4, 2013

  Actual Average Record
Temperature  
Mean Temperature 44 °F -  
Max Temperature 60 °F 62 °F 81 °F (2005)
Min Temperature 27 °F 39 °F 27 °F (2002)
Degree Days  
Heating Degree Days 22    
Moisture  
Dew Point 25 °F    
Average Humidity 54    
Maximum Humidity 89    
Minimum Humidity 20    
Precipitation  
Precipitation 0.00 in - - ()
Sea Level Pressure  
Sea Level Pressure 30.14 in    
Wind  
Wind Speed 2 mph (NW)    
Max Wind Speed 9 mph    
Max Gust Speed -    
Visibility 10 miles    
Events      
Averages and records for this station are not official NWS values.
T = Trace of Precipitation, MM = Missing Value Source: NWS Daily Summary

Daily Weather History Graph

Daily Weather History Graph

Search for Another Location

Airport:

Trip Planner

Search our weather history database for the weather conditions in past years. The results will help you decide how hot, cold, wet, or windy it might be!

Date:

Astronomy

Apr. 04, 2013 Rise Set
Actual Time 6:42 AM CDT 7:29 PM CDT
Civil Twilight 6:15 AM CDT 7:56 PM CDT
Nautical Twilight 5:43 AM CDT 8:28 PM CDT
Astronomical Twilight 5:10 AM CDT 9:00 PM CDT
Moon 3:05 AM CDT (4/4) 1:51 PM CDT (4/4)
Length of Visible Light 13h 40m
Length of Day
12h 46m
Waning Crescent, 33% of the Moon is Illuminated
Apr 4
Waning Crescent
Apr 10
New
Apr 18
First Quarter
Apr 25
Full
May 2
Last Quarter

Hourly Weather History & Observations

Time (CDT) Temp. Windchill Dew Point Humidity Pressure Visibility Wind Dir Wind Speed Gust Speed Precip Events Conditions
12:54 AM 35.1 °F - 27.0 °F 72% 30.25 in 10.0 mi Calm Calm - N/A   Clear
1:54 AM 32.0 °F 28.7 °F 27.0 °F 82% 30.25 in 10.0 mi WSW 3.5 mph - N/A   Clear
2:54 AM 30.9 °F - 26.1 °F 82% 30.22 in 10.0 mi Calm Calm - N/A   Clear
3:54 AM 30.0 °F - 26.1 °F 85% 30.21 in 10.0 mi Calm Calm - N/A   Clear
4:54 AM 28.9 °F - 25.0 °F 85% 30.20 in 10.0 mi Calm Calm - N/A   Clear
5:54 AM 27.0 °F - 24.1 °F 89% 30.20 in 10.0 mi Calm Calm - N/A   Clear
6:54 AM 27.0 °F - 21.9 °F 81% 30.22 in 10.0 mi Calm Calm - N/A   Scattered Clouds
7:54 AM 33.1 °F - 28.0 °F 82% 30.22 in 10.0 mi Calm Calm - N/A   Clear
8:54 AM 42.1 °F - 28.0 °F 58% 30.20 in 10.0 mi Calm Calm - N/A   Scattered Clouds
9:54 AM 46.9 °F - 26.1 °F 44% 30.17 in 10.0 mi Calm Calm - N/A   Partly Cloudy
10:54 AM 51.1 °F - 19.0 °F 28% 30.16 in 10.0 mi NE 5.8 mph - N/A   Partly Cloudy
11:54 AM 53.1 °F - 21.0 °F 29% 30.15 in 10.0 mi Calm Calm - N/A   Partly Cloudy
12:54 PM 55.0 °F - 19.9 °F 25% 30.12 in 10.0 mi Calm Calm - N/A   Partly Cloudy
1:54 PM 57.0 °F - 21.9 °F 26% 30.10 in 10.0 mi NNE 9.2 mph - N/A   Partly Cloudy
2:54 PM 57.9 °F - 21.9 °F 25% 30.09 in 10.0 mi Variable 5.8 mph - N/A   Scattered Clouds
3:54 PM 60.1 °F - 21.0 °F 22% 30.06 in 10.0 mi NNW 8.1 mph - N/A   Scattered Clouds
4:54 PM 60.1 °F - 19.0 °F 20% 30.06 in 10.0 mi NW 5.8 mph - N/A   Scattered Clouds
5:54 PM 59.0 °F - 21.0 °F 23% 30.06 in 10.0 mi Variable 3.5 mph - N/A   Mostly Cloudy
6:54 PM 57.0 °F - 23.0 °F 27% 30.06 in 10.0 mi NNW 4.6 mph - N/A   Partly Cloudy
7:54 PM 46.9 °F - 30.0 °F 52% 30.06 in 10.0 mi Calm Calm - N/A   Clear
8:54 PM 43.0 °F - 28.9 °F 58% 30.07 in 10.0 mi Calm Calm - N/A   Clear
9:54 PM 39.0 °F 36.8 °F 30.0 °F 70% 30.08 in 10.0 mi WSW 3.5 mph - N/A   Clear
10:54 PM 39.0 °F 36.8 °F 28.9 °F 67% 30.08 in 10.0 mi West 3.5 mph - N/A   Clear
11:54 PM 36.0 °F - 28.0 °F 73% 30.08 in 10.0 mi Calm Calm - N/A   Clear